Location: Moonridge Observatory
(39.2268°N, 77.7914°W)
Time: 13:26:16
(UTC-04:00)

Amateur Radio Satellites - All Passes

Search period start: 25 October 2014 12:56
Search period end: 26 October 2014 12:56
Location: Moonridge Observatory, 39.2268°N, 77.7914°W

Satellite Date Start Highest point End Downlink Frequencies (MHz)
Time Altitude Azimuth
AO-Echo 25 Oct 13:10:44 13:13:40 16° 62° (ENE) 13:16:40 ?
Oscar 16 25 Oct 13:18:15 13:23:00 39° 70° (ENE) 13:27:46 437.025 USB, Beacon 2401.1428
Uribyol 2 25 Oct 13:39:27 13:43:46 27° 66° (ENE) 13:48:05 436.500 FM
ITAMSAT 1 25 Oct 13:45:32 13:49:56 29° 67° (ENE) 13:54:22 435.822 SSB
ISS 25 Oct 13:58:20 14:01:18 29° 331° (NNW) 14:04:16 145.800 FM
Gurwin Techsat 1B 25 Oct 14:09:13 14:13:28 25° 66° (ENE) 14:17:45 435.225 FM
Oscar 19 25 Oct 14:11:10 14:16:17 68° 258° (WSW) 14:21:25 437.125 CW, 437.150 USB
Sapphire 25 Oct 14:14:20 14:19:31 46° 248° (WSW) 14:24:40 437.095 MHz 1200 baud AX-25 AFSK
UOSAT-12 25 Oct 14:14:43 14:18:45 31° 113° (ESE) 14:22:52 437.025 FM, 437.400 FM
TMSAT-1 25 Oct 14:20:12 14:24:19 24° 65° (ENE) 14:28:27 436.925 FM
AO-7 25 Oct 14:28:52 14:33:22 16° 49° (NE) 14:37:52 29.400 - 29.500 MHz
JAS-1B 25 Oct 14:29:05 14:35:03 62° 258° (WSW) 14:40:40 435.800 - 435.900 CW/SSB
AO-27 25 Oct 14:30:22 14:35:33 77° 75° (ENE) 14:40:48 436.795 MHz FM
SO-50 25 Oct 14:35:47 14:39:09 20° 315° (NW) 14:42:35 436.795 FM
PCSat 25 Oct 14:37:19 14:41:49 27° 252° (WSW) 14:46:17 145.825 MHz
AO-Echo 25 Oct 14:47:05 14:51:53 59° 260° (W) 14:56:52 ?
KITSAT 1 25 Oct 14:54:14 15:00:10 22° 322° (NW) 15:06:08 435.175 FM
Oscar 16 25 Oct 14:58:20 15:02:26 24° 265° (W) 15:06:33 437.025 USB, Beacon 2401.1428
Uribyol 2 25 Oct 15:18:17 15:23:03 36° 262° (W) 15:27:52 436.500 FM
ITAMSAT 1 25 Oct 15:24:36 15:29:17 34° 263° (W) 15:34:01 435.822 SSB
ISS 25 Oct 15:37:49 15:38:51 11° 351° (N) 15:39:52 145.800 FM
Saudisat 1A 25 Oct 15:40:10 15:43:24 19° 46° (NE) 15:46:37 436.775 MHz
Gurwin Techsat 1B 25 Oct 15:48:15 15:53:12 40° 262° (W) 15:58:11 435.225 FM
UOSAT-12 25 Oct 15:54:44 15:58:51 31° 310° (NW) 16:03:03 437.025 FM, 437.400 FM
TMSAT-1 25 Oct 15:58:56 16:03:56 43° 261° (W) 16:08:59 436.925 FM
AO-40 25 Oct 16:05:02 23:18:02 43° 184° (S) 05:07:36 Beacon 2401.320
AO-27 25 Oct 16:13:48 16:15:37 12° 270° (W) 16:17:26 436.795 MHz FM
AO-7 25 Oct 16:16:31 16:24:44 73° 69° (ENE) 16:32:58 29.400 - 29.500 MHz
Uosat F 25 Oct 16:32:26 16:37:22 61° 73° (ENE) 16:42:20 435.120 FM
JAS-2 25 Oct 17:07:00 17:12:23 36° 65° (ENE) 17:18:24 435.800 - 435.900 CW/SSB, 435.910 FM
ISS 25 Oct 17:15:26 17:16:45 12° 12° (NNE) 17:18:04 145.800 FM
Hamsat 25 Oct 17:15:59 17:18:56 19° 68° (ENE) 17:21:53 145.90 MHz
Saudisat 1A 25 Oct 17:18:57 17:23:14 49° 243° (WSW) 17:27:29 436.775 MHz
AO-7 25 Oct 18:11:59 18:18:09 23° 266° (W) 18:24:22 29.400 - 29.500 MHz
Uosat F 25 Oct 18:13:51 18:16:32 14° 269° (W) 18:19:14 435.120 FM
OPAL 25 Oct 18:17:52 18:22:44 55° 103° (ESE) 18:27:34 ?
Hamsat 25 Oct 18:50:48 18:54:38 34° 263° (W) 18:58:28 145.90 MHz
ISS 25 Oct 18:51:07 18:54:13 35° 31° (NNE) 18:57:19 145.800 FM
JAS-2 25 Oct 18:52:04 18:57:24 35° 266° (W) 19:03:23 435.800 - 435.900 CW/SSB, 435.910 FM
KITSAT 1 25 Oct 18:56:21 18:59:40 13° 24° (NNE) 19:02:58 435.175 FM
SO-67 25 Oct 19:29:06 19:32:31 81° 78° (ENE) 19:35:59 435.3500 MHz FM
OPAL 25 Oct 19:57:59 20:01:10 17° 299° (WNW) 20:04:20 ?
HO-68 25 Oct 19:58:19 20:03:53 25° 60° (ENE) 20:09:28 435.675 MHz FM
STRAND 1 25 Oct 20:03:32 20:08:42 77° 103° (ESE) 20:13:50 ?
ISS 25 Oct 20:28:00 20:30:48 25° 227° (SW) 20:33:36 145.800 FM
KITSAT 1 25 Oct 20:50:03 20:57:38 42° 50° (NE) 21:05:10 435.175 FM
RS-15 25 Oct 21:04:11 21:12:47 27° 103° (ESE) 21:21:15 29.354 - 29.394 USB, Beacon 29.352 USB
Oscar 11 25 Oct 21:09:50 21:12:54 19° 67° (ENE) 21:15:58 145.825 FM, Beacon 2401.500 USB
SO-50 25 Oct 21:26:26 21:30:56 37° 51° (NE) 21:35:27 436.795 FM
HO-68 25 Oct 21:43:57 21:51:01 63° 257° (WSW) 21:58:09 435.675 MHz FM
STRAND 1 25 Oct 21:44:50 21:47:12 13° 299° (WNW) 21:49:35 ?
ZACube-1 25 Oct 22:00:47 22:04:47 30° 70° (ENE) 22:08:45 437.345 MHz
UKube-1 25 Oct 22:03:40 22:08:01 88° 74° (ENE) 22:12:24 145.840 MHz, 145.915 MHz
MaSat-1 25 Oct 22:41:24 22:42:01 10° 104° (ESE) 22:42:38 437.345 MHz
FUNcube-1 25 Oct 22:44:35 22:49:11 90° 251° (WSW) 22:53:44 145.950 - 145.970 MHz USB
Oscar 11 25 Oct 22:44:50 22:48:49 36° 262° (W) 22:52:49 145.825 FM, Beacon 2401.500 USB
UOSAT-12 25 Oct 22:45:15 22:49:01 23° 46° (NE) 22:52:44 437.025 FM, 437.400 FM
KITSAT 1 25 Oct 22:45:30 22:53:04 46° 250° (WSW) 23:00:36 435.175 FM
SO-50 25 Oct 23:07:17 23:11:21 27° 248° (WSW) 23:15:26 436.795 FM
RS-15 25 Oct 23:12:58 23:23:58 76° 303° (WNW) 23:34:57 29.354 - 29.394 USB, Beacon 29.352 USB
ZACube-1 25 Oct 23:37:24 23:41:09 24° 265° (W) 23:44:52 437.345 MHz
MaSat-1 26 Oct 00:13:10 00:17:15 59° 296° (WNW) 00:20:58 437.345 MHz
UOSAT-12 26 Oct 00:24:53 00:29:22 45° 244° (WSW) 00:33:45 437.025 FM, 437.400 FM
RS-15 26 Oct 01:29:54 01:38:30 26° 331° (NNW) 01:47:13 29.354 - 29.394 USB, Beacon 29.352 USB
Oscar 16 26 Oct 01:32:26 01:35:10 14° 91° (E) 01:37:54 437.025 USB, Beacon 2401.1428
Oscar 10/S400 26 Oct 01:44:45 02:43:44 19° 245° (WSW) 04:53:38 145.825 - 145.975 CW/USB, Beacon 145.810 USB
JAS-1B 26 Oct 02:12:04 02:18:28 39° 99° (E) 02:25:58 435.800 - 435.900 CW/SSB
Oscar 19 26 Oct 02:23:56 02:28:52 46° 99° (E) 02:33:45 437.125 CW, 437.150 USB
AO-27 26 Oct 02:44:59 02:49:33 30° 96° (E) 02:54:04 436.795 MHz FM
AO-Echo 26 Oct 02:55:08 03:00:19 51° 99° (E) 03:05:27 ?
Oscar 16 26 Oct 03:09:52 03:14:55 62° 287° (WNW) 03:19:57 437.025 USB, Beacon 2401.1428
Sapphire 26 Oct 03:12:33 03:16:58 26° 108° (ESE) 03:21:25 437.095 MHz 1200 baud AX-25 AFSK
Uribyol 2 26 Oct 03:31:34 03:36:48 88° 104° (ESE) 03:41:59 436.500 FM
PCSat 26 Oct 03:34:06 03:39:12 45° 112° (ESE) 03:44:21 145.825 MHz
ITAMSAT 1 26 Oct 03:37:55 03:43:10 87° 285° (WNW) 03:48:23 435.822 SSB
RS-15 26 Oct 03:49:42 03:56:30 18° 7° (N) 04:03:23 29.354 - 29.394 USB, Beacon 29.352 USB
OPAL 26 Oct 03:57:05 03:58:38 11° 57° (ENE) 04:00:11 ?
JAS-1B 26 Oct 04:02:50 04:09:01 40° 291° (WNW) 04:16:15 435.800 - 435.900 CW/SSB
Oscar 19 26 Oct 04:04:08 04:07:51 21° 295° (WNW) 04:11:33 437.125 CW, 437.150 USB
Gurwin Techsat 1B 26 Oct 04:05:05 04:10:26 90° 104° (ESE) 04:15:45 435.225 FM
TMSAT-1 26 Oct 04:15:29 04:20:49 84° 103° (ESE) 04:26:07 436.925 FM
AO-7 26 Oct 04:20:18 04:26:48 25° 94° (E) 04:33:16 29.400 - 29.500 MHz
AO-27 26 Oct 04:24:25 04:29:01 32° 292° (WNW) 04:33:35 436.795 MHz FM
AO-Echo 26 Oct 04:34:49 04:38:40 21° 296° (WNW) 04:42:31 ?
Uosat F 26 Oct 04:42:08 04:45:50 20° 94° (E) 04:49:31 435.120 FM
Sapphire 26 Oct 04:55:04 05:00:09 41° 305° (NW) 05:05:17 437.095 MHz 1200 baud AX-25 AFSK
Uribyol 2 26 Oct 05:13:43 05:15:29 12° 301° (WNW) 05:17:15 436.500 FM
PCSat 26 Oct 05:18:17 05:22:48 26° 310° (NW) 05:27:20 145.825 MHz
ITAMSAT 1 26 Oct 05:20:31 05:21:50 11° 301° (WNW) 05:23:08 435.822 SSB
OPAL 26 Oct 05:31:36 05:36:46 89° 72° (ENE) 05:41:53 ?
STRAND 1 26 Oct 05:43:06 05:45:02 12° 60° (ENE) 05:46:58 ?
Gurwin Techsat 1B 26 Oct 05:47:47 05:49:36 12° 301° (WNW) 05:51:24 435.225 FM
TMSAT-1 26 Oct 05:57:47 05:59:59 13° 300° (WNW) 06:02:12 436.925 FM
JAS-2 26 Oct 06:00:58 06:08:18 42° 96° (E) 06:15:30 435.800 - 435.900 CW/SSB, 435.910 FM
RS-15 26 Oct 06:03:23 06:13:29 37° 41° (NE) 06:23:53 29.354 - 29.394 USB, Beacon 29.352 USB
AO-7 26 Oct 06:11:53 06:20:08 69° 292° (WNW) 06:28:23 29.400 - 29.500 MHz
Uosat F 26 Oct 06:20:01 06:24:47 44° 289° (WNW) 06:29:33 435.120 FM
Hamsat 26 Oct 06:37:01 06:41:01 42° 98° (E) 06:45:01 145.90 MHz
STRAND 1 26 Oct 07:18:20 07:23:28 84° 256° (WSW) 07:28:39 ?
PANSAT 26 Oct 07:21:45 07:23:25 13° 168° (SSE) 07:25:06 not established
Saudisat 1A 26 Oct 07:23:59 07:28:15 54° 117° (ESE) 07:32:33 436.775 MHz
JAS-2 26 Oct 07:45:59 07:53:11 43° 293° (WNW) 08:00:23 435.800 - 435.900 CW/SSB, 435.910 FM
AO-7 26 Oct 08:07:10 08:11:25 15° 312° (NW) 08:15:40 29.400 - 29.500 MHz
Hamsat 26 Oct 08:14:06 08:16:37 16° 294° (WNW) 08:19:09 145.90 MHz
RS-15 26 Oct 08:15:37 08:26:44 72° 244° (WSW) 08:38:21 29.354 - 29.394 USB, Beacon 29.352 USB
SO-67 26 Oct 08:26:08 08:29:35 70° 283° (WNW) 08:33:00 435.3500 MHz FM
PANSAT 26 Oct 09:00:26 09:02:53 16° 181° (S) 09:05:20 not established
Saudisat 1A 26 Oct 09:05:05 09:08:07 18° 315° (NW) 09:11:12 436.775 MHz
HO-68 26 Oct 09:13:28 09:19:23 27° 95° (E) 09:25:15 435.675 MHz FM
UKube-1 26 Oct 09:54:11 09:56:54 16° 93° (E) 09:59:35 145.840 MHz, 145.915 MHz
MaSat-1 26 Oct 10:00:24 10:02:33 25° 251° (WSW) 10:04:35 437.345 MHz
RS-15 26 Oct 10:32:00 10:37:05 14° 263° (W) 10:42:16 29.354 - 29.394 USB, Beacon 29.352 USB
Oscar 11 26 Oct 10:33:10 10:37:16 42° 99° (E) 10:41:20 145.825 FM, Beacon 2401.500 USB
FUNcube-1 26 Oct 10:36:03 10:38:55 18° 93° (E) 10:41:45 145.950 - 145.970 MHz USB
PANSAT 26 Oct 10:41:03 10:42:20 11° 194° (SSW) 10:43:38 not established
HO-68 26 Oct 11:00:24 11:07:23 55° 292° (WNW) 11:14:19 435.675 MHz FM
KITSAT 1 26 Oct 11:17:59 11:24:46 31° 106° (ESE) 11:31:33 435.175 FM
ZACube-1 26 Oct 11:26:53 11:31:07 72° 102° (ESE) 11:35:16 437.345 MHz
UKube-1 26 Oct 11:29:08 11:33:16 42° 288° (WNW) 11:37:22 145.840 MHz, 145.915 MHz
ISS 26 Oct 11:33:12 11:35:32 18° 131° (SE) 11:37:54 145.800 FM
SO-50 26 Oct 11:42:47 11:44:54 13° 107° (ESE) 11:47:03 436.795 FM
Oscar 10/S400 26 Oct 11:56:47 12:16:31 25° 152° (SSE) 12:30:59 145.825 - 145.975 CW/USB, Beacon 145.810 USB
Sapphire 26 Oct 12:01:17 12:05:14 20° 47° (NE) 12:09:09 437.095 MHz 1200 baud AX-25 AFSK
Oscar 11 26 Oct 12:10:23 12:13:06 17° 294° (WNW) 12:15:48 145.825 FM, Beacon 2401.500 USB
FUNcube-1 26 Oct 12:11:34 12:15:25 34° 289° (WNW) 12:19:11 145.950 - 145.970 MHz USB
PCSat 26 Oct 12:23:08 12:27:55 30° 52° (NE) 12:32:40 145.825 MHz
Oscar 16 26 Oct 12:48:09 12:51:53 21° 65° (ENE) 12:55:37 437.025 USB, Beacon 2401.1428
